Date Time,Air Temp,Sky Temp,Clarity,Light Level,Rain Sensor,Readings
2010-10-06 00:00:14,20.9,9.9,11.0,0.0,2.2,112
2010-10-06 00:05:14,20.9,11.5,9.4,0.0,2.3,111
2010-10-06 00:10:14,20.9,10.7,10.3,0.0,7.9,111
2010-10-06 00:15:14,20.9,9.9,11.0,0.0,9.5,112
2010-10-06 00:20:14,20.8,15.2,5.6,0.0,24.9,111
2010-10-06 00:25:14,21.1,18.4,2.8,0.0,27.6,112
2010-10-06 00:30:14,21.3,18.6,2.7,0.0,24.1,111
2010-10-06 00:35:14,21.2,17.9,3.3,0.0,22.2,111
2010-10-06 00:40:14,21.2,16.2,5.0,0.0,14.6,112
2010-10-06 00:45:14,21.1,12.0,9.1,0.0,14.4,111
2010-10-06 00:50:14,21.1,11.4,9.7,0.0,13.9,111
2010-10-06 00:55:14,21.0,13.1,8.0,0.0,13.2,111
2010-10-06 01:00:14,21.1,13.9,7.2,0.0,16.6,112
2010-10-06 01:05:14,21.1,15.7,5.3,0.0,17.3,111
2010-10-06 01:10:14,21.0,15.9,5.1,0.0,13.7,111
2010-10-06 01:15:14,21.0,15.7,5.3,0.0,15.2,112
2010-10-06 01:20:14,20.9,16.6,4.3,0.0,14.2,111
2010-10-06 01:25:14,20.9,14.8,6.1,0.0,14.8,112
2010-10-06 01:30:14,20.9,13.0,7.9,0.0,15.6,111
2010-10-06 01:35:14,20.9,11.6,9.2,0.0,11.2,111
2010-10-06 01:40:14,20.8,12.3,8.5,0.0,7.1,112
2010-10-06 01:45:14,20.7,10.4,10.2,0.0,7.6,111
2010-10-06 01:50:14,20.6,7.7,12.9,0.0,8.4,112
2010-10-06 01:55:14,20.5,7.9,12.7,0.0,11.6,111
2010-10-06 02:00:14,20.4,9.2,11.2,0.0,10.8,111
2010-10-06 02:05:14,20.3,10.2,10.1,0.0,10.6,111
2010-10-06 02:10:14,20.4,10.7,9.7,0.0,12.9,112
2010-10-06 02:15:14,20.4,11.5,8.9,0.0,14.1,111
2010-10-06 02:20:14,20.5,13.1,7.4,0.0,15.2,111
2010-10-06 02:25:14,20.5,15.9,4.6,0.0,21.2,112
2010-10-06 02:30:14,20.6,16.6,4.0,0.0,24.1,111
2010-10-06 02:35:14,20.8,18.2,2.6,0.0,28.4,111
2010-10-06 02:40:14,20.9,18.2,2.8,0.0,27.2,112
2010-10-06 02:45:14,20.9,19.0,1.9,0.0,28.8,111
2010-10-06 02:50:14,20.8,17.3,3.6,0.0,27.5,112
2010-10-06 02:55:14,20.7,17.5,3.3,0.0,23.6,111
2010-10-06 03:00:14,20.7,18.7,2.0,0.0,25.1,112
2010-10-06 03:05:14,20.6,18.7,1.9,0.0,26.0,111
2010-10-06 03:10:14,20.5,17.6,3.0,0.0,24.4,112
2010-10-06 03:15:14,20.5,18.9,1.7,0.0,25.8,111
2010-10-06 03:20:14,20.6,19.9,0.8,0.0,25.8,111
2010-10-06 03:25:14,20.6,18.1,2.5,0.0,24.2,112
2010-10-06 03:30:14,20.5,18.0,2.5,0.0,20.9,111
2010-10-06 03:35:14,20.4,18.5,1.9,0.0,28.2,111
2010-10-06 03:40:14,20.6,19.3,1.3,0.0,30.1,112
2010-10-06 03:45:14,20.6,17.7,2.9,0.0,29.4,112
2010-10-06 03:50:14,20.5,17.4,3.1,0.0,28.9,111
2010-10-06 03:55:14,20.5,17.3,3.2,0.0,29.3,112
2010-10-06 04:00:14,20.5,17.3,3.2,0.0,25.2,111
2010-10-06 04:05:14,20.9,18.2,2.7,0.0,26.8,111
2010-10-06 04:10:14,20.6,17.8,2.9,0.0,27.6,112
2010-10-06 04:15:14,20.6,17.1,3.6,0.0,24.7,112
2010-10-06 04:20:14,20.5,15.3,5.2,0.0,8.6,111
2010-10-06 04:25:14,20.2,14.3,5.9,0.0,3.7,112
2010-10-06 04:30:14,20.0,15.0,5.0,0.0,2.9,111
2010-10-06 04:35:14,19.9,14.6,5.3,0.0,2.5,112
2010-10-06 04:40:14,19.9,10.6,9.3,0.0,2.3,111
2010-10-06 04:45:14,20.0,10.6,9.4,0.0,2.3,112
2010-10-06 04:50:14,20.1,10.9,9.1,0.0,2.3,111
2010-10-06 04:55:14,20.1,10.5,9.6,0.0,2.3,111
2010-10-06 05:00:14,20.2,10.6,9.5,0.0,2.3,112
2010-10-06 05:05:14,20.1,10.1,10.0,0.0,2.3,112
2010-10-06 05:10:14,20.4,9.9,10.5,0.0,2.3,111
2010-10-06 05:15:14,20.0,10.0,10.0,0.0,2.3,112
2010-10-06 05:20:14,20.0,9.9,10.1,0.0,2.3,111
2010-10-06 05:25:14,20.0,10.1,9.9,0.0,2.3,112
2010-10-06 05:30:14,20.0,10.4,9.6,0.0,2.3,111
2010-10-06 05:35:14,20.0,10.1,9.8,0.0,2.3,111
2010-10-06 05:40:14,19.9,10.2,9.7,0.0,2.3,112
2010-10-06 05:45:14,19.9,9.1,10.9,0.0,2.3,111
2010-10-06 05:50:14,19.9,9.4,10.5,0.0,2.3,112
2010-10-06 05:55:14,20.0,10.1,9.9,0.0,2.3,111
2010-10-06 06:00:14,20.0,9.9,10.1,0.0,2.3,112
2010-10-06 06:05:14,20.0,10.2,9.8,0.0,2.3,112
2010-10-06 06:10:14,20.0,10.3,9.7,0.0,2.3,112
2010-10-06 06:15:14,20.0,10.5,9.5,0.0,2.3,111
2010-10-06 06:20:14,20.0,10.6,9.5,0.0,2.3,111
2010-10-06 06:25:14,20.1,10.8,9.3,0.1,2.3,112
2010-10-06 06:30:14,20.1,11.0,9.2,0.2,3.4,111
2010-10-06 06:35:14,20.4,10.6,9.8,0.5,5.5,111
2010-10-06 06:40:14,20.1,11.1,9.0,1.3,6.8,112
2010-10-06 06:45:14,20.0,10.4,9.7,2.5,2.3,111
2010-10-06 06:50:14,20.0,10.7,9.3,5.3,2.4,112
2010-10-06 06:55:14,20.1,10.7,9.3,8.2,2.5,111
2010-10-06 07:00:14,20.1,10.9,9.2,11.6,2.3,111
2010-10-06 07:05:14,20.2,10.6,9.6,20.7,2.4,111
2010-10-06 07:10:14,20.2,12.5,7.7,17.0,17.4,111
2010-10-06 07:15:14,20.4,13.3,7.1,19.0,16.1,112
2010-10-06 07:20:14,20.2,10.2,10.0,25.5,2.8,111
2010-10-06 07:25:14,20.0,8.6,11.4,26.3,2.5,111
2010-10-06 07:30:14,19.8,8.1,11.8,25.7,5.9,112
2010-10-06 07:35:14,19.7,9.0,10.7,29.3,19.9,111
2010-10-06 07:40:14,19.8,11.5,8.3,30.1,23.6,111
2010-10-06 07:45:14,19.8,11.1,8.7,30.5,26.0,111
2010-10-06 07:50:14,19.9,12.0,7.8,31.1,32.7,112
2010-10-06 07:55:14,19.9,11.9,8.0,31.3,27.1,111
2010-10-06 08:00:14,20.0,10.9,9.2,31.3,30.1,111
2010-10-06 08:05:14,20.0,10.0,9.9,31.7,32.1,111
2010-10-06 08:10:14,20.0,10.0,10.0,31.6,21.0,112
2010-10-06 08:15:14,19.9,9.9,10.0,31.6,11.3,111
2010-10-06 08:20:14,19.5,10.0,9.5,31.9,6.9,112
2010-10-06 08:25:14,19.4,6.7,12.7,32.0,7.4,112
2010-10-06 08:30:14,19.3,6.4,12.9,32.0,6.9,112
2010-10-06 08:35:14,19.2,6.6,12.6,32.1,10.9,111
2010-10-06 08:40:14,19.2,5.8,13.4,32.1,5.6,111
2010-10-06 08:45:14,19.1,4.7,14.4,32.2,3.2,112
2010-10-06 08:50:14,19.1,4.9,14.2,32.1,2.5,111
2010-10-06 08:55:14,19.2,5.1,14.0,32.1,2.3,112
2010-10-06 09:00:14,19.2,5.4,13.8,32.1,2.4,112
2010-10-06 09:05:14,19.3,5.4,13.8,32.3,2.3,111
2010-10-06 09:10:14,19.4,5.2,14.2,32.3,2.3,112
2010-10-06 09:15:14,19.5,6.5,13.0,32.3,2.3,112
2010-10-06 09:20:14,19.5,7.2,12.4,32.3,2.4,111
2010-10-06 09:25:14,19.6,8.8,10.7,32.2,2.4,111
2010-10-06 09:30:14,19.6,7.5,12.1,32.4,2.3,111
2010-10-06 09:35:14,19.7,6.8,12.8,32.4,2.3,112
2010-10-06 09:40:14,19.8,7.6,12.2,32.4,2.3,112
2010-10-06 09:45:14,19.9,4.8,15.1,32.4,2.2,111
2010-10-06 09:50:14,20.5,0.8,19.7,32.4,2.3,111
2010-10-06 09:55:14,22.9,-0.5,23.4,32.4,2.3,111
2010-10-06 10:00:14,24.3,-6.9,31.2,32.4,2.3,112
2010-10-06 10:05:14,24.7,-8.7,33.4,32.4,2.3,112
2010-10-06 10:10:14,24.9,-5.6,30.5,32.4,2.3,111
2010-10-06 10:15:14,25.0,-5.3,30.3,32.5,2.3,112
2010-10-06 10:20:14,25.1,-4.3,29.4,32.5,2.3,112
2010-10-06 10:25:14,25.3,-3.4,28.8,32.5,2.3,112
2010-10-06 10:30:14,25.5,1.2,24.3,32.5,2.3,111
2010-10-06 10:35:14,25.4,0.2,25.3,32.5,2.3,111
2010-10-06 10:40:14,25.8,-4.7,30.5,32.5,2.2,112
2010-10-06 10:45:14,26.0,-9.7,35.8,32.5,2.1,111
2010-10-06 10:50:14,26.2,-11.0,37.2,32.5,2.3,112
2010-10-06 10:55:14,26.1,-11.5,37.6,32.5,2.3,111
2010-10-06 11:00:14,25.8,-11.1,36.9,32.5,2.1,112
2010-10-06 11:05:14,26.2,-10.7,36.9,32.5,2.2,111
2010-10-06 11:10:14,26.5,-11.3,37.8,32.5,2.3,112
2010-10-06 11:15:14,26.5,-11.2,37.7,32.6,2.3,111
2010-10-06 11:20:14,26.8,-10.0,36.8,32.6,2.3,112
2010-10-06 11:25:14,27.5,-10.1,37.6,32.6,2.3,112
2010-10-06 11:30:14,27.8,-10.0,37.8,32.6,2.3,112
2010-10-06 11:35:14,28.0,-8.7,36.7,32.5,2.3,112
2010-10-06 11:40:14,27.3,-8.0,35.4,32.5,2.3,111
2010-10-06 11:45:14,26.5,-6.5,33.0,32.5,2.3,111
2010-10-06 11:50:14,26.1,-8.6,34.7,32.5,2.3,112
2010-10-06 11:55:14,26.7,-5.8,32.5,32.6,2.3,112
2010-10-06 12:00:14,27.8,-7.9,35.7,32.6,2.3,111
2010-10-06 12:05:14,28.4,-9.6,38.0,32.6,2.3,112
2010-10-06 12:10:14,28.7,-9.6,38.3,32.6,2.3,112
2010-10-06 12:15:14,28.9,-9.7,38.7,32.6,2.3,111
2010-10-06 12:20:14,29.1,-9.2,38.3,32.6,2.3,112
2010-10-06 12:25:14,29.4,-7.5,37.0,32.6,2.3,112
2010-10-06 12:30:14,29.8,-9.3,39.1,32.6,2.3,112
2010-10-06 12:35:14,29.8,-10.0,39.7,32.6,2.3,111
2010-10-06 12:40:14,29.8,-8.7,38.5,32.6,2.3,112
2010-10-06 12:45:14,30.0,-9.8,39.8,32.6,2.3,112
2010-10-06 12:50:14,30.0,-8.7,38.7,32.6,2.3,111
2010-10-06 12:55:15,30.1,-9.2,39.3,32.6,2.3,112
2010-10-06 13:00:15,30.0,-9.1,39.0,32.6,2.3,112
2010-10-06 13:05:15,30.2,-8.1,38.3,32.6,2.3,112
2010-10-06 13:10:15,30.3,-8.0,38.3,32.6,2.3,111
2010-10-06 13:15:15,30.4,-7.5,37.9,32.6,2.3,111
2010-10-06 13:20:15,30.4,-7.6,38.0,32.6,2.3,111
2010-10-06 13:25:15,30.6,-6.9,37.5,32.6,2.3,112
2010-10-06 13:30:15,30.8,-8.4,39.2,32.6,2.3,111
2010-10-06 13:35:15,30.8,-8.1,38.9,32.6,2.3,112
2010-10-06 13:40:15,30.7,-9.8,40.4,32.6,2.3,111
2010-10-06 13:45:15,30.1,-7.0,37.1,32.6,2.3,112
2010-10-06 13:50:15,30.3,-7.8,38.1,32.6,2.3,112
2010-10-06 13:55:15,29.6,-8.3,38.0,32.5,2.3,112
2010-10-06 14:00:15,28.9,-8.4,37.4,32.5,2.3,111
2010-10-06 14:05:15,28.7,-9.3,38.0,32.5,2.3,111
2010-10-06 14:10:15,27.7,-7.0,34.7,32.5,2.3,112
2010-10-06 14:15:15,27.2,-5.3,32.5,32.5,2.3,111
2010-10-06 14:20:15,27.2,-3.4,30.6,32.5,2.3,112
2010-10-06 14:25:15,27.1,-1.4,28.5,32.5,2.3,112
2010-10-06 14:30:15,26.9,4.2,22.7,32.5,2.3,111
2010-10-06 14:35:15,27.2,5.2,21.9,32.5,2.3,111
2010-10-06 14:40:15,25.8,8.0,17.8,32.6,2.3,112
2010-10-06 14:45:15,28.3,-0.5,28.8,32.6,2.3,111
2010-10-06 14:50:15,29.0,-1.8,30.8,32.5,2.3,112
2010-10-06 14:55:15,29.2,2.0,27.2,32.6,2.3,111
2010-10-06 15:00:15,30.2,0.8,29.4,32.6,2.3,111
2010-10-06 15:05:15,30.6,3.0,27.6,32.6,2.3,111
2010-10-06 15:10:15,30.9,-2.4,33.4,32.6,2.3,112
2010-10-06 15:15:15,31.1,-3.2,34.3,32.6,2.3,112
2010-10-06 15:20:15,31.0,-7.3,38.3,32.6,2.3,112
2010-10-06 15:25:15,30.5,-5.3,35.7,32.6,2.3,112
2010-10-06 15:30:15,29.9,-5.0,34.9,32.6,2.3,111
2010-10-06 15:35:15,29.5,-7.9,37.4,32.6,2.3,112
2010-10-06 15:40:15,29.3,-7.2,36.5,32.6,2.3,112
2010-10-06 15:45:15,29.3,-7.7,37.0,32.6,2.3,111
2010-10-06 15:50:15,29.4,-7.1,36.5,32.6,2.3,112
2010-10-06 15:55:15,29.8,-6.4,36.2,32.6,2.3,112
2010-10-06 16:00:15,30.0,-8.2,38.2,32.6,2.3,111
2010-10-06 16:05:15,29.8,-8.8,38.6,32.6,2.3,112
2010-10-06 16:10:15,29.4,-8.5,38.0,32.6,2.3,112
2010-10-06 16:15:15,29.2,-5.2,34.4,32.6,2.3,111
2010-10-06 16:20:15,28.8,-6.4,35.2,32.6,2.3,112
2010-10-06 16:25:15,29.0,-6.3,35.3,32.6,2.3,112
2010-10-06 16:30:15,29.2,-6.4,35.6,32.6,2.3,111
2010-10-06 16:35:15,29.3,-8.0,37.3,32.6,2.3,112
2010-10-06 16:40:15,29.3,-7.7,37.0,32.6,2.3,112
2010-10-06 16:45:15,29.4,-7.3,36.6,32.6,2.3,112
2010-10-06 16:50:15,29.3,-8.1,37.3,32.6,2.3,111
2010-10-06 16:55:15,29.1,-8.8,37.9,32.6,2.3,112
2010-10-06 17:00:15,28.9,-8.4,37.4,32.6,2.3,112
2010-10-06 17:05:15,28.9,-9.6,38.5,32.6,2.3,112
2010-10-06 17:10:15,28.6,-9.6,38.2,32.6,2.3,112
2010-10-06 17:15:15,28.4,-10.0,38.4,32.6,2.3,112
2010-10-06 17:20:15,28.2,-10.2,38.3,32.6,2.3,112
2010-10-06 17:25:15,28.0,-10.6,38.5,32.6,2.3,112
2010-10-06 17:30:15,27.7,-11.0,38.7,32.6,2.3,112
2010-10-06 17:35:15,27.5,-11.2,38.6,32.6,2.3,111
2010-10-06 17:40:15,26.8,-11.1,38.0,32.6,2.3,111
2010-10-06 17:45:15,27.2,-11.4,38.6,32.6,2.3,112
2010-10-06 17:50:15,27.0,-11.5,38.5,32.5,2.3,111
2010-10-06 17:55:15,26.8,-11.6,38.4,32.5,2.3,112
2010-10-06 18:00:15,26.5,-12.4,38.9,32.4,2.3,111
2010-10-06 18:05:15,26.1,-12.0,38.1,32.5,2.3,111
2010-10-06 18:10:15,25.8,-12.4,38.2,32.4,2.3,111
2010-10-06 18:15:15,25.5,-12.7,38.2,32.3,2.3,112
2010-10-06 18:20:15,25.2,-12.8,38.0,32.2,2.3,111
2010-10-06 18:25:15,24.9,-12.8,37.7,32.0,2.2,112
2010-10-06 18:30:15,24.7,-12.7,37.4,31.6,2.2,111
2010-10-06 18:35:15,24.4,-12.3,36.8,31.2,2.3,112
2010-10-06 18:40:15,24.3,-12.1,36.4,30.6,2.3,111
2010-10-06 18:45:15,24.3,-11.8,36.0,29.6,2.3,111
2010-10-06 18:50:15,24.1,-11.8,35.9,27.8,2.3,111
2010-10-06 18:55:15,23.6,-11.9,35.5,24.6,2.3,112
2010-10-06 19:00:15,24.0,-11.8,35.7,19.5,2.3,111
2010-10-06 19:05:15,23.9,-11.7,35.7,13.2,2.3,112
2010-10-06 19:10:15,23.8,-11.7,35.6,7.9,2.3,111
2010-10-06 19:15:15,23.8,-11.0,34.8,4.5,2.3,112
2010-10-06 19:20:15,23.4,-10.9,34.2,2.4,2.3,111
2010-10-06 19:25:15,23.8,-10.3,34.1,1.3,2.3,112
2010-10-06 19:30:15,23.8,-11.1,34.9,0.7,2.3,112
2010-10-06 19:35:15,23.7,-11.0,34.7,0.4,2.3,111
2010-10-06 19:40:15,23.7,-10.4,34.1,0.2,2.3,112
2010-10-06 19:45:15,23.8,-10.6,34.4,0.1,2.3,112
2010-10-06 19:50:15,23.8,-10.7,34.6,0.0,2.3,111
2010-10-06 19:55:15,23.8,-10.7,34.5,0.0,2.3,112
2010-10-06 20:00:15,23.8,-10.7,34.5,0.0,2.3,112
2010-10-06 20:05:15,23.7,-10.6,34.3,0.0,2.3,111
2010-10-06 20:10:15,23.9,-10.8,34.7,0.0,2.3,112
2010-10-06 20:15:15,23.9,-10.8,34.7,0.0,2.3,112
2010-10-06 20:20:15,23.9,-10.9,34.8,0.0,2.3,112
2010-10-06 20:25:15,23.9,-10.9,34.7,0.0,2.3,111
2010-10-06 20:30:15,23.9,-10.9,34.7,0.0,2.3,112
2010-10-06 20:35:15,23.8,-10.9,34.7,0.0,2.3,111
2010-10-06 20:40:15,23.6,-10.8,34.3,0.0,2.3,112
2010-10-06 20:45:15,23.6,-10.7,34.3,0.0,2.3,111
2010-10-06 20:50:15,23.6,-10.8,34.4,0.0,2.3,112
2010-10-06 20:55:15,23.1,-11.0,34.1,0.0,2.3,112
2010-10-06 21:00:15,23.5,-10.9,34.4,0.0,2.3,112
2010-10-06 21:05:15,23.5,-10.8,34.3,0.0,2.3,111
2010-10-06 21:10:15,23.6,-10.7,34.2,0.0,2.3,112
2010-10-06 21:15:15,23.6,-10.6,34.2,0.0,2.3,111
2010-10-06 21:20:15,23.6,-10.8,34.4,0.0,2.3,112
2010-10-06 21:25:15,23.7,-10.9,34.6,0.0,2.3,112
2010-10-06 21:30:15,23.6,-11.0,34.6,0.0,2.3,112
2010-10-06 21:35:15,23.6,-10.8,34.4,0.0,2.3,111
2010-10-06 21:40:15,23.6,-10.5,34.0,0.0,2.3,112
2010-10-06 21:45:15,23.6,-10.4,34.0,0.0,2.3,112
2010-10-06 21:50:15,23.6,-10.4,34.1,0.0,2.3,112
2010-10-06 21:55:15,23.7,-10.3,34.0,0.0,2.3,112
2010-10-06 22:00:15,23.6,-10.6,34.2,0.0,2.3,112
2010-10-06 22:05:15,23.5,-10.5,34.0,0.0,2.3,111
2010-10-06 22:10:15,23.6,-10.4,34.0,0.0,2.3,113
2010-10-06 22:15:15,23.6,-10.3,33.9,0.0,2.3,112
2010-10-06 22:20:15,23.5,-10.2,33.8,0.0,2.3,112
2010-10-06 22:25:15,23.5,-9.9,33.5,0.0,2.3,112
2010-10-06 22:30:15,23.6,-9.7,33.3,0.0,2.3,112
2010-10-06 22:35:15,23.6,-9.5,33.1,0.0,2.3,111
2010-10-06 22:40:15,23.6,-9.6,33.1,0.0,2.3,112
2010-10-06 22:45:15,23.6,-9.4,33.1,0.0,2.3,112
2010-10-06 22:50:15,23.7,-9.5,33.2,0.0,2.3,112
2010-10-06 22:55:15,23.8,-9.4,33.2,0.0,2.3,111
2010-10-06 23:00:15,23.8,-9.4,33.3,0.0,2.3,112
2010-10-06 23:05:15,23.8,-9.6,33.4,0.0,2.3,111
2010-10-06 23:10:15,23.8,-9.7,33.5,0.0,2.3,112
2010-10-06 23:15:15,23.7,-9.8,33.5,0.0,2.3,112
2010-10-06 23:20:15,23.7,-10.0,33.7,0.0,2.3,112
2010-10-06 23:25:15,23.7,-10.0,33.7,0.0,2.3,112
2010-10-06 23:30:15,23.6,-9.8,33.4,0.0,2.3,112
2010-10-06 23:35:15,23.6,-9.7,33.3,0.0,2.3,112
2010-10-06 23:40:15,23.6,-9.6,33.2,0.0,2.3,112
2010-10-06 23:45:15,23.6,-9.5,33.1,0.0,2.3,111
2010-10-06 23:50:15,23.6,-10.2,33.8,0.0,2.3,112
2010-10-06 23:55:15,23.7,-10.1,33.8,0.0,2.2,112
